| time (UTC) | temp C | wind direction | speed KPH | gust KPH | rain 1hr cm | rain 24hr cm | rain mn cm | humidity % | barometer mb |
| 20260905235414 | 20 | 319 | 3.2 | 9.7 | 0.00 | 0.03 | 0.00 | 61 | 1022.6 |
| 20260905234915 | 19 | 305 | 3.2 | 14.5 | 0.00 | 0.03 | 0.00 | 62 | 1022.6 |
| 20260905234412 | 19 | 1 | 4.8 | 14.5 | 0.00 | 0.03 | 0.00 | 62 | 1022.6 |
| 20260905233414 | 18 | 340 | 6.4 | 9.7 | 0.00 | 0.03 | 0.00 | 63 | 1022.4 |
| 20260905232912 | 18 | 254 | 1.6 | 9.7 | 0.00 | 0.03 | 0.00 | 62 | 1022.6 |
| 20260905232412 | 18 | 130 | 0.0 | 3.2 | 0.00 | 0.03 | 0.00 | 62 | 1022.7 |
| 20260905231916 | 18 | 307 | 0.0 | 3.2 | 0.00 | 0.03 | 0.00 | 61 | 1022.7 |
| 20260905231416 | 19 | 73 | 0.0 | 4.8 | 0.00 | 0.03 | 0.00 | 61 | 1022.8 |
| 20260905230912 | 19 | 96 | 1.6 | 4.8 | 0.00 | 0.03 | 0.00 | 60 | 1022.5 |
| 20260905225912 | 19 | 102 | 1.6 | 4.8 | 0.00 | 0.03 | 0.00 | 59 | 1022.4 |
| 20260905224916 | 20 | 98 | 1.6 | 3.2 | 0.00 | 0.03 | 0.00 | 58 | 1022.3 |
| 20260905223913 | 20 | 138 | 1.6 | 6.4 | 0.00 | 0.03 | 0.00 | 56 | 1022.5 |
| 20260905222913 | 20 | 133 | 1.6 | 9.7 | 0.00 | 0.03 | 0.00 | 57 | 1022.6 |
| 20260905222413 | 20 | 233 | 1.6 | 9.7 | 0.00 | 0.03 | 0.00 | 57 | 1022.8 |
| 20260905221414 | 20 | 257 | 6.4 | 9.7 | 0.00 | 0.03 | 0.00 | 59 | 1022.7 |
| 20260905220416 | 19 | 247 | 4.8 | 12.9 | 0.00 | 0.03 | 0.00 | 59 | 1022.7 |
| 20260905215413 | 19 | 286 | 6.4 | 9.7 | 0.00 | 0.03 | 0.03 | 59 | 1022.4 |
| 20260905214916 | 19 | 206 | 3.2 | 11.3 | 0.00 | 0.03 | 0.03 | 59 | 1022.4 |
| 20260905214415 | 19 | 335 | 1.6 | 11.3 | 0.00 | 0.03 | 0.03 | 59 | 1022.7 |
| 20260905213913 | 19 | 304 | 1.6 | 11.3 | 0.00 | 0.03 | 0.03 | 59 | 1022.2 |
| 20260905212914 | 20 | 277 | 6.4 | 9.7 | 0.00 | 0.03 | 0.03 | 59 | 1022.2 |
| 20260905212415 | 20 | 330 | 1.6 | 12.9 | 0.00 | 0.03 | 0.03 | 59 | 1022.0 |
| 20260905211915 | 20 | 274 | 6.4 | 12.9 | 0.00 | 0.03 | 0.03 | 59 | 1022.0 |
| 20260905211412 | 20 | 235 | 3.2 | 11.3 | 0.00 | 0.03 | 0.03 | 59 | 1021.9 |
| 20260905210913 | 20 | 282 | 6.4 | 14.5 | 0.00 | 0.03 | 0.03 | 59 | 1022.1 |
| 20260905210417 | 20 | 250 | 4.8 | 14.5 | 0.00 | 0.03 | 0.03 | 59 | 1021.9 |
| 20260905205913 | 20 | 248 | 4.8 | 12.9 | 0.00 | 0.03 | 0.03 | 58 | 1021.9 |
| 20260905205412 | 20 | 323 | 3.2 | 14.5 | 0.00 | 0.03 | 0.03 | 59 | 1021.6 |
| 20260905204916 | 20 | 225 | 1.6 | 16.1 | 0.00 | 0.03 | 0.03 | 58 | 1022.2 |
| 20260905204412 | 20 | 346 | 3.2 | 16.1 | 0.00 | 0.03 | 0.03 | 58 | 1022.2 |
| 20260905203914 | 20 | 331 | 3.2 | 14.5 | 0.00 | 0.03 | 0.03 | 59 | 1022.0 |
| 20260905203416 | 20 | 349 | 3.2 | 14.5 | 0.00 | 0.03 | 0.03 | 59 | 1022.1 |
| 20260905202414 | 20 | 300 | 8.0 | 12.9 | 0.00 | 0.03 | 0.03 | 59 | 1022.0 |
| 20260905201916 | 20 | 266 | 4.8 | 14.5 | 0.00 | 0.03 | 0.03 | 59 | 1021.8 |
| 20260905201426 | 20 | 251 | 3.2 | 14.5 | 0.00 | 0.03 | 0.03 | 59 | 1021.8 |
| 20260905200915 | 20 | 321 | 3.2 | 12.9 | 0.00 | 0.03 | 0.03 | 59 | 1021.8 |
| 20260905200416 | 20 | 265 | 3.2 | 11.3 | 0.00 | 0.03 | 0.03 | 60 | 1021.6 |
| 20260905195914 | 20 | 262 | 1.6 | 6.4 | 0.00 | 0.03 | 0.03 | 60 | 1021.7 |
| 20260905195413 | 20 | 252 | 3.2 | 6.4 | 0.00 | 0.03 | 0.03 | 60 | 1021.5 |
| 20260905194916 | 20 | 335 | 4.8 | 4.8 | 0.00 | 0.03 | 0.03 | 60 | 1021.6 |
| 20260905194415 | 20 | 296 | 3.2 | 4.8 | 0.00 | 0.03 | 0.03 | 59 | 1021.4 |
| 20260905193913 | 20 | 279 | 0.0 | 6.4 | 0.00 | 0.03 | 0.03 | 59 | 1021.4 |
| 20260905193417 | 20 | 252 | 1.6 | 6.4 | 0.00 | 0.03 | 0.03 | 59 | 1021.3 |
| 20260905192915 | 20 | 242 | 1.6 | 6.4 | 0.00 | 0.03 | 0.03 | 59 | 1021.3 |
| 20260905192414 | 20 | 303 | 0.0 | 9.7 | 0.00 | 0.03 | 0.03 | 58 | 1021.3 |
| 20260905191916 | 20 | 290 | 6.4 | 9.7 | 0.00 | 0.03 | 0.03 | 59 | 1021.1 |
| 20260905191414 | 20 | 279 | 3.2 | 4.8 | 0.00 | 0.03 | 0.03 | 58 | 1020.9 |
| 20260905190913 | 20 | 245 | 3.2 | 9.7 | 0.00 | 0.03 | 0.03 | 58 | 1021.0 |
| 20260905190417 | 20 | 290 | 1.6 | 9.7 | 0.00 | 0.03 | 0.03 | 58 | 1021.2 |
| 20260905185913 | 20 | 256 | 3.2 | 6.4 | 0.00 | 0.03 | 0.03 | 58 | 1021.2 |
| 20260905185413 | 20 | 10 | 0.0 | 4.8 | 0.00 | 0.03 | 0.03 | 57 | 1021.1 |
| 20260905184918 | 20 | 262 | 3.2 | 4.8 | 0.00 | 0.03 | 0.03 | 57 | 1021.3 |
| 20260905184414 | 20 | 298 | 1.6 | 9.7 | 0.00 | 0.03 | 0.03 | 57 | 1020.9 |
| 20260905183915 | 20 | 344 | 1.6 | 9.7 | 0.00 | 0.03 | 0.03 | 57 | 1020.8 |
| 20260905183416 | 20 | 337 | 3.2 | 4.8 | 0.00 | 0.03 | 0.03 | 56 | 1020.8 |
| 20260905182927 | 20 | 352 | 3.2 | 9.7 | 0.00 | 0.03 | 0.03 | 56 | 1020.6 |
| 20260905182415 | 21 | 348 | 1.6 | 9.7 | 0.00 | 0.03 | 0.03 | 55 | 1020.8 |
| 20260905181915 | 21 | 317 | 1.6 | 11.3 | 0.00 | 0.03 | 0.03 | 54 | 1020.3 |
| 20260905181414 | 21 | 321 | 1.6 | 11.3 | 0.00 | 0.03 | 0.03 | 53 | 1020.5 |
| 20260905180928 | 21 | 331 | 1.6 | 11.3 | 0.00 | 0.03 | 0.03 | 53 | 1020.3 |
| 20260905180416 | 21 | 323 | 6.4 | 14.5 | 0.00 | 0.03 | 0.03 | 53 | 1020.4 |
| 20260905175912 | 21 | 281 | 6.4 | 16.1 | 0.00 | 0.03 | 0.03 | 53 | 1020.6 |
| 20260905175412 | 21 | 286 | 3.2 | 16.1 | 0.00 | 0.03 | 0.03 | 52 | 1020.2 |
| 20260905174915 | 22 | 317 | 4.8 | 14.5 | 0.00 | 0.03 | 0.03 | 52 | 1020.2 |
| 20260905174416 | 22 | 332 | 3.2 | 14.5 | 0.00 | 0.03 | 0.03 | 51 | 1020.1 |
| 20260905173912 | 22 | 319 | 6.4 | 14.5 | 0.00 | 0.03 | 0.03 | 51 | 1019.7 |
| 20260905172914 | 22 | 312 | 1.6 | 16.1 | 0.00 | 0.03 | 0.03 | 51 | 1019.8 |
| 20260905171914 | 22 | 274 | 4.8 | 16.1 | 0.00 | 0.03 | 0.03 | 50 | 1019.7 |
| 20260905171413 | 22 | 302 | 4.8 | 16.1 | 0.00 | 0.03 | 0.03 | 50 | 1019.8 |
| 20260905170913 | 22 | 263 | 4.8 | 20.9 | 0.00 | 0.03 | 0.03 | 50 | 1019.8 |
| 20260905170416 | 22 | 307 | 4.8 | 20.9 | 0.00 | 0.03 | 0.03 | 50 | 1019.7 |
| 20260905165912 | 22 | 261 | 3.2 | 11.3 | 0.00 | 0.03 | 0.03 | 50 | 1019.7 |
| 20260905165413 | 23 | 301 | 6.4 | 11.3 | 0.00 | 0.03 | 0.03 | 49 | 1019.9 |
| 20260905164918 | 23 | 333 | 1.6 | 12.9 | 0.00 | 0.03 | 0.03 | 49 | 1019.6 |
| 20260905164413 | 23 | 344 | 6.4 | 12.9 | 0.00 | 0.03 | 0.03 | 49 | 1019.7 |
| 20260905163913 | 23 | 25 | 1.6 | 11.3 | 0.00 | 0.03 | 0.03 | 48 | 1019.4 |
| 20260905163415 | 23 | 317 | 1.6 | 14.5 | 0.00 | 0.03 | 0.03 | 48 | 1019.5 |
| 20260905162913 | 23 | 12 | 4.8 | 14.5 | 0.00 | 0.03 | 0.03 | 48 | 1019.6 |
| 20260905162414 | 23 | 314 | 6.4 | 12.9 | 0.00 | 0.03 | 0.03 | 48 | 1019.7 |
| 20260905161413 | 23 | 340 | 3.2 | 12.9 | 0.00 | 0.03 | 0.03 | 49 | 1019.6 |
| 20260905160914 | 23 | 11 | 4.8 | 14.5 | 0.00 | 0.03 | 0.03 | 48 | 1019.6 |
| 20260905160415 | 23 | 313 | 3.2 | 14.5 | 0.00 | 0.03 | 0.03 | 48 | 1019.5 |
| 20260905155913 | 23 | 240 | 3.2 | 17.7 | 0.00 | 0.03 | 0.03 | 48 | 1019.7 |
| 20260905155414 | 23 | 285 | 8.0 | 20.9 | 0.00 | 0.03 | 0.03 | 47 | 1019.6 |
| 20260905154915 | 23 | 322 | 8.0 | 24.1 | 0.00 | 0.03 | 0.03 | 47 | 1019.5 |
| 20260905154414 | 23 | 19 | 14.5 | 25.7 | 0.00 | 0.03 | 0.03 | 47 | 1019.5 |
| 20260905153414 | 23 | 269 | 8.0 | 16.1 | 0.00 | 0.03 | 0.03 | 47 | 1019.1 |
| 20260905152914 | 23 | 338 | 3.2 | 16.1 | 0.00 | 0.03 | 0.03 | 47 | 1019.4 |
| 20260905152414 | 23 | 322 | 8.0 | 16.1 | 0.00 | 0.03 | 0.03 | 46 | 1019.4 |
| 20260905151914 | 23 | 348 | 6.4 | 17.7 | 0.00 | 0.03 | 0.03 | 45 | 1019.6 |
| 20260905151412 | 23 | 266 | 9.7 | 17.7 | 0.00 | 0.03 | 0.03 | 45 | 1019.5 |
| 20260905150913 | 24 | 316 | 8.0 | 22.5 | 0.00 | 0.03 | 0.03 | 45 | 1019.5 |
| 20260905145914 | 24 | 305 | 6.4 | 27.4 | 0.00 | 0.03 | 0.03 | 43 | 1019.4 |
| 20260905145413 | 24 | 260 | 17.7 | 27.4 | 0.00 | 0.03 | 0.03 | 43 | 1019.6 |
| 20260905144917 | 24 | 300 | 8.0 | 27.4 | 0.00 | 0.03 | 0.03 | 43 | 1019.3 |
| 20260905144414 | 24 | 317 | 6.4 | 22.5 | 0.00 | 0.03 | 0.03 | 42 | 1019.5 |
| 20260905143914 | 24 | 264 | 11.3 | 22.5 | 0.00 | 0.03 | 0.03 | 42 | 1019.5 |
| 20260905142913 | 24 | 309 | 4.8 | 22.5 | 0.00 | 0.03 | 0.03 | 42 | 1019.4 |
| 20260905141412 | 24 | 281 | 8.0 | 24.1 | 0.00 | 0.03 | 0.03 | 41 | 1019.7 |
| 20260905140913 | 25 | 288 | 14.5 | 24.1 | 0.00 | 0.03 | 0.03 | 41 | 1019.6 |
| 20260905140416 | 25 | 298 | 9.7 | 24.1 | 0.00 | 0.03 | 0.03 | 41 | 1019.6 |
| 20260905135414 | 25 | 17 | 12.9 | 27.4 | 0.00 | 0.03 | 0.03 | 40 | 1019.4 |
| 20260905134428 | 25 | 359 | 11.3 | 20.9 | 0.00 | 0.03 | 0.03 | 38 | 1019.5 |
| 20260905132915 | 26 | 348 | 12.9 | 22.5 | 0.00 | 0.03 | 0.03 | 39 | 1019.2 |
| 20260905132414 | 26 | 287 | 17.7 | 27.4 | 0.00 | 0.03 | 0.03 | 38 | 1019.2 |
| 20260905131929 | 26 | 328 | 17.7 | 27.4 | 0.00 | 0.03 | 0.03 | 38 | 1019.2 |
| 20260905131413 | 26 | 0 | 9.7 | 20.9 | 0.00 | 0.03 | 0.03 | 37 | 1019.0 |
| 20260905130916 | 26 | 267 | 4.8 | 17.7 | 0.00 | 0.03 | 0.03 | 39 | 1019.1 |
| 20260905130417 | 26 | 328 | 9.7 | 20.9 | 0.00 | 0.03 | 0.03 | 39 | 1019.3 |
| 20260905125914 | 26 | 282 | 6.4 | 27.4 | 0.00 | 0.03 | 0.03 | 39 | 1019.4 |
| 20260905125414 | 26 | 326 | 9.7 | 29.0 | 0.00 | 0.03 | 0.03 | 38 | 1019.2 |
| 20260905124916 | 26 | 232 | 9.7 | 29.0 | 0.00 | 0.03 | 0.03 | 37 | 1019.2 |
| 20260905123912 | 26 | 303 | 3.2 | 24.1 | 0.00 | 0.03 | 0.03 | 38 | 1019.3 |
| 20260905122914 | 26 | 37 | 11.3 | 25.7 | 0.00 | 0.03 | 0.03 | 38 | 1019.4 |
| 20260905122412 | 26 | 324 | 12.9 | 25.7 | 0.00 | 0.03 | 0.03 | 38 | 1019.5 |
| 20260905121915 | 26 | 320 | 8.0 | 24.1 | 0.00 | 0.03 | 0.03 | 38 | 1019.6 |
| 20260905121415 | 25 | 358 | 12.9 | 24.1 | 0.00 | 0.03 | 0.03 | 41 | 1019.4 |
| 20260905120912 | 25 | 236 | 11.3 | 24.1 | 0.00 | 0.03 | 0.03 | 43 | 1019.3 |
| 20260905120412 | 25 | 329 | 14.5 | 29.0 | 0.00 | 0.03 | 0.03 | 44 | 1019.2 |
| 20260905115412 | 24 | 19 | 9.7 | 27.4 | 0.03 | 0.03 | 0.03 | 45 | 1019.3 |
| 20260905114911 | 23 | 284 | 6.4 | 24.1 | 0.03 | 0.03 | 0.03 | 49 | 1019.3 |
| 20260905114413 | 23 | 241 | 3.2 | 27.4 | 0.03 | 0.03 | 0.03 | 50 | 1019.5 |
| 20260905113911 | 22 | 331 | 4.8 | 27.4 | 0.03 | 0.03 | 0.03 | 53 | 1019.5 |
| 20260905113411 | 21 | 323 | 8.0 | 16.1 | 0.03 | 0.03 | 0.03 | 55 | 1019.7 |
| 20260905112913 | 21 | 12 | 3.2 | 16.1 | 0.03 | 0.03 | 0.03 | 57 | 1019.6 |
| 20260905112413 | 20 | 310 | 3.2 | 16.1 | 0.03 | 0.03 | 0.03 | 58 | 1019.5 |
| 20260905111412 | 20 | 315 | 4.8 | 20.9 | 0.03 | 0.03 | 0.03 | 62 | 1019.5 |
| 20260905110912 | 20 | 351 | 3.2 | 20.9 | 0.03 | 0.03 | 0.03 | 62 | 1019.7 |
| 20260905110413 | 20 | 298 | 6.4 | 17.7 | 0.03 | 0.03 | 0.03 | 61 | 1019.9 |
| 20260905105413 | 22 | 326 | 6.4 | 24.1 | 0.00 | 0.00 | 0.00 | 56 | 1019.6 |
| 20260905104912 | 22 | 337 | 3.2 | 24.1 | 0.00 | 0.00 | 0.00 | 49 | 1019.6 |
| 20260905104415 | 22 | 319 | 9.7 | 24.1 | 0.00 | 0.00 | 0.00 | 48 | 1019.5 |
| 20260905103913 | 23 | 332 | 4.8 | 24.1 | 0.00 | 0.00 | 0.00 | 47 | 1019.1 |
| 20260905103412 | 23 | 317 | 6.4 | 16.1 | 0.00 | 0.00 | 0.00 | 45 | 1019.1 |
| 20260905102914 | 23 | 309 | 6.4 | 17.7 | 0.00 | 0.00 | 0.00 | 44 | 1019.3 |
| 20260905102414 | 24 | 320 | 9.7 | 24.1 | 0.00 | 0.00 | 0.00 | 42 | 1019.3 |
| 20260905101912 | 24 | 341 | 16.1 | 33.8 | 0.00 | 0.00 | 0.00 | 42 | 1019.3 |
| 20260905101413 | 24 | 293 | 8.0 | 33.8 | 0.00 | 0.00 | 0.00 | 41 | 1019.3 |
| 20260905100912 | 24 | 301 | 9.7 | 30.6 | 0.00 | 0.00 | 0.00 | 41 | 1019.4 |
| 20260905100412 | 24 | 293 | 6.4 | 30.6 | 0.00 | 0.00 | 0.00 | 40 | 1019.4 |
| 20260905095913 | 25 | 330 | 14.5 | 24.1 | 0.00 | 0.00 | 0.00 | 40 | 1019.3 |
| 20260905095412 | 25 | 323 | 8.0 | 24.1 | 0.00 | 0.00 | 0.00 | 40 | 1019.5 |
| 20260905094912 | 25 | 339 | 11.3 | 24.1 | 0.00 | 0.00 | 0.00 | 41 | 1019.5 |
| 20260905094413 | 25 | 299 | 14.5 | 25.7 | 0.00 | 0.00 | 0.00 | 41 | 1019.5 |
| 20260905093912 | 25 | 0 | 9.7 | 25.7 | 0.00 | 0.00 | 0.00 | 42 | 1019.7 |
| 20260905092913 | 24 | 330 | 8.0 | 25.7 | 0.00 | 0.00 | 0.00 | 43 | 1019.6 |
| 20260905091912 | 24 | 354 | 19.3 | 29.0 | 0.00 | 0.00 | 0.00 | 43 | 1019.5 |
| 20260905091411 | 24 | 334 | 6.4 | 24.1 | 0.00 | 0.00 | 0.00 | 46 | 1019.6 |
| 20260905090912 | 24 | 338 | 12.9 | 24.1 | 0.00 | 0.00 | 0.00 | 45 | 1019.7 |
| 20260905090412 | 24 | 332 | 11.3 | 25.7 | 0.00 | 0.00 | 0.00 | 45 | 1019.6 |
| 20260905085411 | 25 | 320 | 6.4 | 25.7 | 0.00 | 0.00 | 0.00 | 45 | 1019.4 |
| 20260905084911 | 25 | 348 | 4.8 | 30.6 | 0.00 | 0.00 | 0.00 | 46 | 1019.5 |
| 20260905084412 | 25 | 322 | 17.7 | 30.6 | 0.00 | 0.00 | 0.00 | 45 | 1019.4 |
| 20260905083915 | 25 | 316 | 12.9 | 30.6 | 0.00 | 0.00 | 0.00 | 46 | 1019.2 |
| 20260905083412 | 25 | 351 | 11.3 | 20.9 | 0.00 | 0.00 | 0.00 | 48 | 1019.2 |
| 20260905082912 | 25 | 326 | 8.0 | 33.8 | 0.00 | 0.00 | 0.00 | 50 | 1019.5 |
| 20260905082412 | 24 | 348 | 17.7 | 33.8 | 0.00 | 0.00 | 0.00 | 50 | 1019.3 |
| 20260905081911 | 24 | 322 | 4.8 | 35.4 | 0.00 | 0.00 | 0.00 | 51 | 1019.7 |
| 20260905081412 | 24 | 359 | 16.1 | 35.4 | 0.00 | 0.00 | 0.00 | 51 | 1019.1 |
| 20260905080911 | 24 | 297 | 16.1 | 30.6 | 0.00 | 0.00 | 0.00 | 52 | 1019.0 |
| 20260905075913 | 24 | 331 | 11.3 | 33.8 | 0.00 | 0.00 | 0.00 | 52 | 1018.4 |
| 20260905075412 | 24 | 314 | 11.3 | 29.0 | 0.00 | 0.00 | 0.00 | 53 | 1018.5 |
| 20260905074911 | 24 | 303 | 12.9 | 25.7 | 0.00 | 0.00 | 0.00 | 54 | 1018.0 |
| 20260905074415 | 24 | 235 | 9.7 | 29.0 | 0.00 | 0.00 | 0.00 | 54 | 1017.7 |
| 20260905073912 | 24 | 298 | 12.9 | 29.0 | 0.00 | 0.00 | 0.00 | 54 | 1017.5 |
| 20260905073412 | 24 | 255 | 9.7 | 24.1 | 0.00 | 0.00 | 0.00 | 55 | 1017.3 |
| 20260905072915 | 24 | 274 | 6.4 | 20.9 | 0.00 | 0.00 | 0.00 | 54 | 1017.7 |
| 20260905072412 | 24 | 150 | 8.0 | 33.8 | 0.00 | 0.00 | 0.00 | 54 | 1017.4 |
| 20260905071912 | 24 | 265 | 14.5 | 33.8 | 0.00 | 0.00 | 0.00 | 53 | 1016.9 |
| 20260905071414 | 25 | 277 | 16.1 | 27.4 | 0.00 | 0.00 | 0.00 | 53 | 1016.9 |
| 20260905070912 | 25 | 316 | 6.4 | 24.1 | 0.00 | 0.00 | 0.00 | 52 | 1017.1 |
| 20260905065914 | 25 | 6 | 12.9 | 25.7 | 0.00 | 0.00 | 0.00 | 52 | 1016.4 |
| 20260905065412 | 25 | 313 | 11.3 | 24.1 | 0.00 | 0.00 | 0.00 | 52 | 1016.4 |
| 20260905064412 | 25 | 262 | 14.5 | 22.5 | 0.00 | 0.00 | 0.00 | 51 | 1016.2 |
| 20260905063914 | 25 | 347 | 0.0 | 16.1 | 0.00 | 0.00 | 0.00 | 50 | 1015.9 |
| 20260905062913 | 26 | 281 | 8.0 | 22.5 | 0.00 | 0.00 | 0.00 | 49 | 1015.8 |
| 20260905061913 | 26 | 308 | 6.4 | 22.5 | 0.00 | 0.00 | 0.00 | 50 | 1015.5 |
| 20260905061414 | 25 | 283 | 8.0 | 22.5 | 0.00 | 0.00 | 0.00 | 51 | 1015.3 |
| 20260905060913 | 25 | 334 | 6.4 | 22.5 | 0.00 | 0.00 | 0.00 | 51 | 1015.2 |
| 20260905060412 | 24 | 237 | 9.7 | 16.1 | 0.00 | 0.00 | 0.00 | 53 | 1015.2 |
| 20260905055914 | 23 | 272 | 12.9 | 16.1 | 0.00 | 0.00 | 0.00 | 55 | 1015.4 |
| 20260905055415 | 22 | 314 | 6.4 | 14.5 | 0.00 | 0.00 | 0.00 | 60 | 1015.1 |
| 20260905054914 | 22 | 7 | 1.6 | 6.4 | 0.00 | 0.00 | 0.00 | 60 | 1015.0 |
| 20260905054413 | 22 | 114 | 3.2 | 6.4 | 0.00 | 0.00 | 0.00 | 60 | 1014.9 |
| 20260905053413 | 21 | 201 | 1.6 | 4.8 | 0.00 | 0.00 | 0.00 | 63 | 1014.7 |
| 20260905052413 | 21 | 46 | 0.0 | 3.2 | 0.00 | 0.00 | 0.00 | 65 | 1014.7 |
| 20260905051913 | 21 | 91 | 0.0 | 4.8 | 0.00 | 0.00 | 0.00 | 65 | 1014.7 |
| 20260905051414 | 21 | 68 | 1.6 | 4.8 | 0.00 | 0.00 | 0.00 | 65 | 1014.4 |
| 20260905050912 | 20 | 65 | 3.2 | 4.8 | 0.00 | 0.00 | 0.00 | 66 | 1014.6 |
| 20260905050414 | 20 | 99 | 3.2 | 4.8 | 0.00 | 0.00 | 0.00 | 66 | 1014.5 |
| 20260905045915 | 20 | 152 | 0.0 | 0.0 | 0.00 | 0.00 | 0.00 | 66 | 1014.6 |
| 20260905045414 | 20 | 299 | 0.0 | 0.0 | 0.00 | 0.00 | 0.00 | 67 | 1014.6 |
| 20260905044914 | 20 | 299 | 0.0 | 1.6 | 0.00 | 0.00 | 0.00 | 68 | 1014.5 |
| 20260905044413 | 20 | 299 | 0.0 | 1.6 | 0.00 | 0.00 | 0.00 | 67 | 1014.4 |
| 20260905043912 | 19 | 298 | 0.0 | 0.0 | 0.00 | 0.00 | 0.00 | 67 | 1014.6 |
| 20260905043412 | 19 | 298 | 0.0 | 0.0 | 0.00 | 0.00 | 0.00 | 67 | 1014.4 |
| 20260905042401 | 20 | 67 | 0.0 | 3.2 | 0.00 | 0.00 | 0.00 | 66 | 1014.3 |
| 20260905041348 | 20 | 139 | 0.0 | 4.8 | 0.00 | 0.00 | 0.00 | 66 | 1014.4 |
| 20260905040848 | 20 | 139 | 1.6 | 3.2 | 0.00 | 0.00 | 0.00 | 66 | 1014.2 |
| 20260905040347 | 20 | 229 | 0.0 | 0.0 | 0.00 | 0.00 | 0.00 | 65 | 1013.9 |
| 20260905035348 | 20 | 210 | 0.0 | 1.6 | 0.00 | 0.00 | 0.00 | 62 | 1014.0 |
| 20260905034849 | 20 | 210 | 0.0 | 1.6 | 0.00 | 0.00 | 0.00 | 63 | 1014.0 |
| 20260905034349 | 21 | 68 | 1.6 | 1.6 | 0.00 | 0.00 | 0.00 | 62 | 1014.0 |
| 20260905033835 | 21 | 256 | 0.0 | 0.0 | 0.00 | 0.00 | 0.00 | 60 | 1014.1 |
| 20260905033337 | 21 | 256 | 0.0 | 1.6 | 0.00 | 0.00 | 0.00 | 60 | 1014.1 |
| 20260905032837 | 22 | 256 | 0.0 | 3.2 | 0.00 | 0.00 | 0.00 | 58 | 1014.0 |
| 20260905032325 | 22 | 256 | 1.6 | 3.2 | 0.00 | 0.00 | 0.00 | 57 | 1014.1 |
| 20260905031825 | 22 | 344 | 0.0 | 1.6 | 0.00 | 0.00 | 0.00 | 56 | 1014.0 |
| 20260905031326 | 23 | 45 | 0.0 | 1.6 | 0.00 | 0.00 | 0.00 | 55 | 1013.9 |
| 20260905030825 | 23 | 265 | 0.0 | 1.6 | 0.00 | 0.00 | 0.00 | 53 | 1013.9 |
| 20260905030325 | 24 | 8 | 0.0 | 1.6 | 0.00 | 0.00 | 0.00 | 53 | 1013.7 |
| 20260905025324 | 24 | 243 | 0.0 | 6.4 | 0.00 | 0.00 | 0.00 | 51 | 1013.7 |
| 20260905024826 | 25 | 218 | 1.6 | 6.4 | 0.00 | 0.00 | 0.00 | 51 | 1014.0 |
| 20260905024325 | 25 | 194 | 1.6 | 9.7 | 0.00 | 0.00 | 0.00 | 51 | 1013.9 |
| 20260905023826 | 25 | 108 | 1.6 | 9.7 | 0.00 | 0.00 | 0.00 | 51 | 1013.8 |
| 20260905023326 | 25 | 221 | 1.6 | 4.8 | 0.00 | 0.00 | 0.00 | 51 | 1013.9 |
| 20260905022824 | 25 | 112 | 0.0 | 9.7 | 0.00 | 0.00 | 0.00 | 51 | 1013.8 |
| 20260905022325 | 24 | 238 | 0.0 | 11.3 | 0.00 | 0.00 | 0.00 | 51 | 1013.9 |
| 20260905021825 | 24 | 158 | 0.0 | 11.3 | 0.00 | 0.00 | 0.00 | 51 | 1013.9 |
| 20260905021338 | 24 | 235 | 3.2 | 11.3 | 0.00 | 0.00 | 0.00 | 52 | 1013.8 |
| 20260905020837 | 24 | 22 | 1.6 | 6.4 | 0.00 | 0.00 | 0.00 | 52 | 1013.8 |
| 20260905020326 | 23 | 186 | 1.6 | 11.3 | 0.00 | 0.00 | 0.00 | 53 | 1013.7 |
| 20260905015825 | 23 | 160 | 3.2 | 11.3 | 0.00 | 0.00 | 0.00 | 55 | 1013.7 |
| 20260905015324 | 22 | 231 | 1.6 | 6.4 | 0.00 | 0.00 | 0.00 | 57 | 1014.1 |
| 20260905014327 | 22 | 100 | 1.6 | 6.4 | 0.00 | 0.00 | 0.00 | 58 | 1013.9 |
| 20260905013325 | 22 | 121 | 3.2 | 9.7 | 0.00 | 0.00 | 0.00 | 57 | 1013.9 |
| 20260905012825 | 22 | 96 | 3.2 | 9.7 | 0.00 | 0.00 | 0.00 | 57 | 1013.8 |
| 20260905012325 | 22 | 222 | 0.0 | 6.4 | 0.00 | 0.00 | 0.00 | 57 | 1014.0 |
| 20260905011826 | 22 | 309 | 0.0 | 3.2 | 0.00 | 0.00 | 0.00 | 56 | 1013.8 |
| 20260905011326 | 22 | 120 | 3.2 | 3.2 | 0.00 | 0.00 | 0.00 | 55 | 1013.9 |
| 20260905010824 | 22 | 209 | 1.6 | 1.6 | 0.00 | 0.00 | 0.00 | 54 | 1013.8 |
| 20260905010325 | 23 | 249 | 1.6 | 4.8 | 0.00 | 0.00 | 0.00 | 54 | 1014.0 |
| 20260905005825 | 23 | 332 | 3.2 | 4.8 | 0.00 | 0.00 | 0.00 | 52 | 1013.7 |
| 20260905005324 | 23 | 123 | 3.2 | 6.4 | 0.00 | 0.00 | 0.00 | 51 | 1013.6 |
| 20260905004325 | 23 | 143 | 4.8 | 6.4 | 0.00 | 0.00 | 0.00 | 52 | 1013.6 |
| 20260905002825 | 23 | 219 | 3.2 | 3.2 | 0.00 | 0.00 | 0.00 | 51 | 1013.6 |
| 20260905002326 | 24 | 350 | 0.0 | 3.2 | 0.00 | 0.00 | 0.00 | 49 | 1013.6 |
| 20260905001825 | 25 | 320 | 0.0 | 6.4 | 0.00 | 0.00 | 0.00 | 48 | 1013.6 |
| 20260905000814 | 25 | 128 | 1.6 | 12.9 | 0.00 | 0.00 | 0.00 | 47 | 1013.5 |
| 20260904235811 | 25 | 161 | 1.6 | 11.3 | 0.00 | 0.00 | 0.00 | 47 | 1013.8 |